Location: Heisler
(52.6701°N, 112.2239°W)
Time: 15:00:48
(UTC+00:00)

Envisat - Pass Details

Date: 03 December 2021
Orbit: 764 x 766 km, 98.2° (Epoch: 26 January)

Event Time Altitude Azimuth Distance (km) Brightness Sun altitude
Rises 12:47:25 0° 14° (NNE) 3,248 6.3 -22.1°
Reaches altitude 10° 12:49:44 10° 15° (NNE) 2,317 5.5 -21.8°
Maximum altitude 12:54:52 89° 286° (WNW) 774 2.9 -21.0°
Drops below altitude 10° 12:59:57 10° 197° (SSW) 2,299 5.4 -20.3°
Sets 13:02:14 0° 198° (SSW) 3,221 6.2 -19.9°
